Presure
232 225 223 226 226 213 193 195 250 235 213 205 215 225 206 212 204 197 194 187 218 200 197 199 204 194 192 195 201 200 199 203 185 190 189 193 212 202 151 232 243 224 214
218 220 217 219 224 222 234 214 211 202 155 127 205 211 217 200 204 209 209 174 126 193 190 192 199 175 137 202 201 192 194 157 193 192 198 202 216 214 238 233 222 208 203
235 205 201 223 229 212 212 217 213 217 212 171 206 209 205 210 191 197 212 153 184 206 125 206 201 195 208 201 190 185 158 178 201 227 216 222 228 224 226 214 209 208 203
220 212 199 200 215 223 222 212 204 206 188 195 203 207 219 215 219 204 214 210 203 205 200 193 195 196 139 183 139 197 212 210 203 204 228 222 221 218 204 204 205 202 196
220 220 212 208 146 196 196 208 219 213 202 198 195 195 197 212 221 224 223 213 217 230 127 160 227 225 222 217 205 197 201 256 229 224 230 223 217 212 222 218 219 210 215
228 219 212 227 220 216 226 218 205 204 212 210 205 202 203 204 205 206 207 201 203 204 204 207 207 205 197 202 227 250 233 231 233 232 215 212 207 206 208 209 206 213 212
234 217 207 210 208 213 222 209 221 205 205 163 203 219 205 204 204 204 205 204 204 210 213 224 234 227 226 233 228 241 221 215 205 210 206 202 205 210 208 205 209 211 205
223 221 214 212 216 216 208 207 222 211 203 204 206 211 203 212 220 229 230 215 215 211 223 224 220 220 212 213 222 211 223 207 206 202 204 200 202 203 196 203 203 201 201
233 240 227 222 219 213 217 217 210 217 232 229 227 231 219 218 257 220 219 201 214 210 204 208 222 219 223 212 209 213 204 201 200 201 198 195 195 197 197 201 199 200 202
226 231 231 236 231 227 223 222 228 217 220 224 225 222 223 215 216 196 206 186 195 204 208 222 223 224 216 222 212 204 194 197 199 193 193 195 199 194 198 199 201 204 209
242 231 225 226 220 218 224 217 211 183 223 225 228 214 221 203 183 195 184 194 201 206 221 205 217 217 215 207 201 199 196 195 192 192 195 193 192 201 201 203 206 214 223
210 230 246 231 219 221 221 223 223 225 230 224 220 199 201 206 189 218 211 208 210 204 211 208 207 211 210 211 198 196 192 193 192 195 189 200 202 200 206 215 219 230 230
216 222 211 212 208 211 230 211 209 208 217 209 203 193 205 182 205 209 197 209 231 222 205 214 220 224 212 203 198 194 193 193 186 197 201 199 206 213 215 224 228 232 229
235 247 231 226 222 220 216 217 214 216 202 232 231 229 255 198 199 210 212 220 213 226 235 224 217 214 212 211 210 190 192 200 197 201 205 211 213 219 227 225 224 226 229
243 234 252 266 244 241 229 222 228 233 274 220 205 207 226 216 213 209 204 208 206 207 213 223 225 223 220 204 198 201 195 194 205 210 211 215 226 221 217 224 217 233 230
246 236 227 217 227 223 216 215 208 211 236 217 214 216 204 195 195 209 216 216 213 216 226 225 202 199 196 195 197 202 207 208 213 212 223 216 218 214 228 218 221 246 240
186 221 236 228 223 214 211 208 208 211 212 210 209 213 210 204 202 202 203 201 200 196 195 196 199 204 204 204 209 212 212 199 218 204 221 208 224 234 230 226 242 234 248
223 262 190 186 220 240 229 225 219 212 207 206 204 200 204 200 202 200 201 200 200 203 205 205 207 212 214 210 198 220 216 210 214 209 211 230 222 228 245 239 235 235 237
215 204 225 204 247 201 241 238 231 224 213 214 214 214 224 218 216 218 212 214 214 213 211 215 216 187 213 217 212 210 213 214 223 217 213 223 231 241 235 238 239 238 252
205 202 235 205 205 229 256 204 197 239 238 238 236 227 227 224 221 221 219 203 221 220 189 208 213 193 197 219 207 218 211 216 212 232 229 238 238 236 231 236 245 256 254
229 218 207 197 215 207 215 213 243 250 243 247 245 242 239 238 233 228 226 225 222 183 223 221 222 218 215 209 230 240 225 236 219 237 239 236 232 230 232 246 261 263 275
215 218 196 213 215 201 229 235 222 208 249 212 237 238 240 229 229 228 228 226 223 220 217 211 214 216 244 244 232 234 225 233 221 236 230 229 233 236 267 265 266 276 281
207 210 192 207 212 213 221 213 223 247 233 240 237 231 229 227 226 223 221 221 225 219 212 213 242 233 220 227 225 219 218 222 228 229 232 243 241 274 268 266 271 278 293
193 210 206 201 215 220 212 242 227 243 248 240 233 226 230 228 225 222 227 227 223 220 247 253 225 219 224 229 215 224 230 228 229 249 249 251 267 267 264 272 278 292 344
198 218 211 199 212 206 214 213 220 231 241 250 239 232 232 243 231 239 238 229 224 221 204 215 213 232 240 233 222 240 239 246 249 250 256 266 267 265 277 281 296 342 458
205 208 192 206 213 213 203 220 222 221 254 240 211 234 234 215 221 214 214 211 215 219 208 230 216 224 237 219 246 242 246 257 254 257 265 264 269 275 285 298 346 365 437
Wind_Speed
29 29 35 39 39 50 53 52 31 42 52 53 49 52 57 62 66 67 68 67 54 67 71 71 68 75 79 82 80 82 83 84 89 87 89 90 98 101 87 82 72 81 82
27 30 36 34 28 35 33 46 46 49 41 41 49 51 50 57 62 64 68 62 48 69 71 74 77 71 63 80 80 81 82 83 87 90 91 92 88 86 71 72 80 84 85
26 31 34 34 34 35 36 37 40 42 49 45 48 48 50 50 56 55 60 55 66 75 57 80 77 78 79 79 79 84 79 88 96 95 96 88 80 77 71 74 77 81 88
29 37 38 36 33 32 39 44 42 43 43 45 49 49 50 50 52 58 56 63 69 72 73 74 76 76 69 78 74 89 88 87 88 91 82 81 75 75 80 78 78 80 86
32 36 43 42 29 35 34 39 39 45 48 49 49 49 48 47 45 47 48 55 57 57 60 63 69 73 73 76 80 85 88 64 78 77 73 75 74 75 74 79 80 81 79
34 35 35 34 44 46 44 47 43 45 44 47 49 49 49 50 50 51 54 58 61 66 67 70 71 74 79 80 78 53 75 71 68 69 71 74 75 75 76 78 85 90 92
38 36 38 38 38 39 40 41 47 48 49 45 47 49 48 50 51 53 55 58 64 69 67 68 66 68 72 72 68 63 70 69 69 70 73 77 80 81 82 85 89 92 91
34 39 41 41 43 43 41 41 46 49 48 48 48 47 47 51 49 41 37 50 56 62 60 62 62 66 69 68 66 68 70 69 70 73 75 80 82 85 86 92 93 92 96
34 41 44 44 45 43 43 44 45 47 45 46 46 42 41 43 31 40 31 42 56 59 62 62 62 64 62 63 63 65 66 69 73 74 78 81 85 89 93 96 96 100 103
29 31 36 39 39 40 41 42 38 41 43 41 40 36 34 43 37 46 31 53 59 62 64 64 62 62 63 65 63 64 68 71 75 77 83 86 89 90 98 101 104 107 110
28 33 35 34 35 35 38 33 16 53 45 40 36 33 32 39 51 48 52 57 61 63 62 61 63 63 64 63 65 67 70 73 77 83 87 89 92 98 99 104 108 111 116
31 30 35 35 33 36 37 36 38 43 42 37 25 35 38 40 47 41 55 57 59 59 60 60 60 63 65 68 69 71 74 77 81 88 86 96 98 100 106 109 114 118 119
34 32 34 35 36 36 37 37 36 38 40 37 24 39 46 43 52 53 53 57 56 57 59 60 63 69 68 69 71 74 77 82 82 92 96 98 103 106 109 113 115 117 118
38 31 34 35 37 38 38 38 38 38 39 42 37 44 43 47 50 52 51 54 57 58 64 63 62 65 68 72 75 77 81 86 90 95 100 102 105 109 111 112 114 117 119
35 37 34 32 36 37 35 37 38 38 38 40 39 41 47 47 48 49 53 53 55 58 60 63 67 68 71 73 77 80 83 86 94 97 100 104 108 109 110 115 114 120 120
38 38 37 37 34 34 35 36 38 40 39 43 44 43 44 47 51 50 53 55 58 60 60 63 67 70 73 77 80 84 89 92 96 99 103 105 108 111 115 114 116 118 119
34 33 37 38 37 39 39 41 43 43 43 45 46 48 49 51 52 54 55 56 59 63 67 70 73 74 77 81 84 87 90 87 98 96 103 105 109 112 115 115 115 116 119
36 28 35 32 33 37 40 41 44 46 48 50 51 53 54 56 57 59 60 62 64 66 68 71 73 75 78 80 81 90 92 95 98 101 103 104 110 113 111 115 115 117 120
42 39 35 40 36 38 39 42 44 47 50 51 54 55 56 57 59 59 62 63 66 68 70 73 75 73 80 85 89 92 95 99 101 103 107 110 111 109 113 116 118 118 115
39 42 32 48 49 45 43 48 47 51 54 56 57 58 60 60 62 63 64 66 68 71 69 76 79 79 83 87 92 95 96 101 102 102 107 107 109 111 115 117 119 115 117
32 40 48 48 42 54 49 49 48 49 52 57 59 59 60 60 61 63 66 68 71 72 75 78 81 84 87 91 90 89 100 97 105 101 103 107 110 113 116 119 116 119 122
47 45 49 47 48 53 48 45 50 56 51 55 52 54 56 59 61 63 66 68 71 72 77 83 86 88 80 79 89 91 99 99 104 105 108 110 112 113 112 112 115 123 128
49 52 53 53 50 49 48 55 56 54 56 54 54 55 58 61 63 66 69 71 72 75 82 85 80 82 91 88 91 97 102 104 106 109 112 108 111 113 112 116 123 128 132
52 52 54 59 51 52 55 54 61 60 57 56 57 60 61 63 63 67 67 71 75 79 80 79 83 91 91 95 97 101 103 105 110 107 107 110 115 116 116 124 128 133 128
55 49 52 62 56 59 56 61 63 67 63 56 57 57 53 55 55 55 57 64 70 75 87 86 90 90 94 96 99 104 106 108 107 107 111 116 117 117 127 130 133 130 81
58 57 65 61 57 57 58 70 68 68 63 60 63 60 57 64 65 72 76 80 80 81 87 87 92 95 97 97 105 107 109 110 110 114 119 118 124 128 135 136 131 121 77
Wind_Direction
215 216 221 230 223 228 233 238 235 228 238 242 246 241 246 238 240 251 257 263 259 264 269 267 265 266 270 273 276 276 279 282 277 282 284 286 290 292 291 295 296 295 296
216 224 233 233 230 228 224 234 228 235 254 268 243 244 248 247 248 251 249 260 269 264 266 267 269 272 274 271 277 277 280 283 282 284 286 289 290 289 293 293 293 295 294
217 231 246 240 228 239 238 235 240 236 240 257 252 247 250 253 256 253 254 261 263 263 272 266 269 269 274 275 276 278 283 283 284 289 288 291 291 291 289 287 289 291 292
215 220 244 250 247 238 234 239 249 248 253 253 253 258 263 257 253 252 257 255 258 260 264 266 268 271 280 275 283 280 281 282 283 286 290 290 291 292 290 290 289 288 289
222 220 230 237 253 255 253 251 246 245 249 252 256 258 258 263 261 263 264 264 267 267 278 275 271 272 276 274 275 278 281 289 286 287 290 291 292 293 296 295 293 285 288
220 229 237 240 239 245 244 246 251 254 254 249 251 257 260 263 264 268 266 265 266 265 264 266 268 272 273 276 279 287 281 288 290 294 291 293 290 287 288 293 295 302 300
220 225 245 242 246 248 244 251 244 252 256 262 261 262 265 267 269 270 272 271 273 272 274 277 278 278 276 279 284 286 288 290 289 295 295 294 296 300 300 299 301 302 303
243 237 238 248 250 247 253 250 247 248 257 262 264 268 269 271 268 274 279 277 277 278 278 278 278 279 283 286 287 290 292 294 295 295 298 297 299 302 300 302 303 306 306
254 243 242 251 253 261 260 255 258 258 258 260 265 267 270 270 257 272 257 276 280 277 278 280 281 282 283 286 288 289 291 293 294 296 296 297 301 302 301 303 306 306 306
269 262 260 257 254 253 256 265 273 275 268 267 269 267 271 276 272 276 263 275 279 280 282 281 283 284 288 290 291 290 289 294 297 298 299 299 300 301 302 305 305 305 306
266 266 269 266 264 268 266 267 238 269 271 274 278 277 273 272 284 283 275 276 278 279 277 287 288 289 290 290 291 292 294 295 297 297 298 300 301 301 302 303 303 303 304
274 271 259 262 268 268 270 270 268 270 275 275 282 265 264 265 262 266 266 274 276 281 284 288 289 288 290 291 292 294 295 297 296 296 300 298 300 303 303 304 305 306 309
281 268 273 272 276 270 267 272 273 273 275 280 271 252 263 269 264 263 275 277 272 280 283 286 284 283 288 290 291 293 293 293 301 298 299 301 303 303 304 305 306 307 309
281 273 272 269 268 270 273 273 273 273 274 279 273 267 275 265 270 273 276 279 282 283 278 283 288 288 289 289 291 295 298 296 298 300 301 302 303 303 305 307 309 310 310
279 282 279 273 274 273 275 275 279 280 277 280 276 276 277 276 277 278 280 282 285 287 290 289 288 288 289 291 294 295 297 299 299 300 301 303 303 306 308 308 309 309 310
282 285 286 284 281 280 280 278 278 280 280 281 281 278 270 272 277 285 287 287 289 288 287 287 291 292 294 295 298 299 298 300 301 302 303 306 307 309 306 309 309 309 312
281 283 279 279 278 279 279 280 281 281 282 283 284 286 286 284 284 285 287 288 290 291 292 294 295 296 296 297 298 299 299 303 300 305 305 308 306 305 305 307 309 312 311
300 301 289 281 286 286 283 282 281 283 284 285 285 286 284 287 288 289 291 291 291 290 291 292 293 294 297 298 299 299 300 302 304 306 307 305 305 305 309 310 310 311 310
298 301 298 302 302 293 293 292 289 287 286 286 285 287 289 287 287 287 289 291 292 292 293 295 298 300 300 299 299 301 302 304 303 304 304 305 307 309 309 310 310 309 308
303 306 309 308 310 306 296 302 299 291 290 290 290 289 290 290 292 292 292 294 293 295 298 299 299 301 301 298 301 300 303 301 303 303 307 308 309 310 309 308 308 308 307
301 301 301 306 313 304 300 302 301 297 296 292 291 290 290 290 290 291 292 294 296 300 298 296 296 297 298 301 300 301 301 305 304 309 310 309 309 308 308 309 311 311 314
293 295 304 305 306 302 309 309 303 299 303 301 296 296 294 293 293 293 293 294 295 295 294 296 298 300 301 304 301 303 303 307 305 308 308 307 306 306 312 312 313 316 316
294 293 302 299 301 303 314 307 313 303 307 300 297 296 294 293 293 293 294 293 291 292 295 297 301 302 301 303 304 303 304 305 308 308 307 304 305 316 315 317 318 317 315
296 291 295 298 308 314 306 318 322 314 302 298 294 294 293 293 293 292 292 292 292 295 303 304 302 300 303 305 303 304 306 308 308 308 308 310 316 317 318 318 317 316 315
291 296 298 296 305 303 313 314 318 320 308 296 295 295 295 298 294 300 299 297 298 301 297 296 302 308 310 306 304 310 309 309 309 310 312 316 317 319 319 318 317 316 310
288 293 294 294 303 309 303 317 316 316 305 298 301 299 291 294 298 294 292 294 294 297 299 306 300 303 308 301 314 312 311 313 312 314 317 318 320 320 319 318 317 316 311